Flag for USA

Past Weather in Grand Canyon National Park, Arizona, USA — Yesterday and Last 2 Weeks

Now
42 °F

Clear.


Feels Like: 37 °F
Forecast: 70 / 38 °F
Wind: 8 mph from South

Location: Grand Canyon National Park Airport

Current Time: Apr 4, 2020 at 11:40:21 pm

Latest Report: Apr 4, 2020 at 10:54 pm


Visibility: 10 mi

Pressure: 29.76 "Hg

Humidity: 57%

Dew Point: 28 °F

Location of Grand Canyon National ParkLocation

Past Weather in Grand Canyon National Park — Graph

°F

Grand Canyon National Park Temperature Yesterday

Maximum temperature yesterday: 60 °F (at 1:54 pm)
Minimum temperature yesterday: 20 °F (at 4:54 am)
Average temperature yesterday: 40 °F

High & Low Weather Summary for the Past Weeks

 TemperatureHumidityPressure
High63 °F (Mar 31, 2:54 pm)96% (Mar 23, 3:54 am)30.24 "Hg (Mar 23, 3:54 am)
Low10 °F (Mar 28, 5:54 am)20% (Mar 31, 3:54 pm)29.66 "Hg (Apr 2, 2:54 am)
Average38 °F62%29.96 "Hg
* Reported Mar 20 9:54 pm — Apr 4 9:54 pm, Grand Canyon National Park. Weather by CustomWeather, © 2020

Note: Actual official high and low records may vary slightly from our data, if they occured in-between our weather recording intervals... More about our weather records

Grand Canyon National Park Weather History for the Previous 24 Hours

Scroll right to see more
 ConditionsComfort  
Time TempWeatherWind HumidityBarometerVisibility
9:54 pm
Sat, Apr 4
44 °FClear.10 mph53%29.76 "Hg10 mi
8:54 pm44 °FPassing clouds.10 mph49%29.77 "Hg10 mi
7:54 pm47 °FPassing clouds.12 mph44%29.77 "Hg10 mi
6:54 pm50 °FClear.16 mph38%29.80 "Hg10 mi
5:54 pm55 °FScattered clouds.16 mph29%29.78 "Hg10 mi
4:54 pm58 °FPartly sunny.22 mph26%29.76 "Hg10 mi
3:54 pm60 °FSunny.21 mph23%29.74 "Hg10 mi
2:54 pm60 °FPassing clouds.22 mph23%29.76 "Hg10 mi
1:54 pm59 °FSunny.15 mph26%29.78 "Hg10 mi
12:54 pm57 °FSunny.17 mph25%29.83 "Hg10 mi
10:54 am54 °FSunny.14 mph26%29.84 "Hg10 mi
9:54 am52 °FSunny.10 mph31%29.82 "Hg10 mi
8:54 am48 °FSunny.8 mph36%29.83 "Hg10 mi
7:54 am39 °FSunny.No wind60%29.86 "Hg10 mi
6:54 am24 °FSunny.No wind84%29.87 "Hg10 mi
5:54 am22 °FClear.No wind89%29.84 "Hg10 mi
4:54 am21 °FClear.No wind92%29.84 "Hg10 mi
3:54 am25 °FClear.No wind85%29.82 "Hg10 mi
2:54 am25 °FClear.No wind85%29.81 "Hg10 mi
1:54 am26 °FClear.No wind81%29.82 "Hg10 mi
12:54 am25 °FClear.No wind85%29.85 "Hg10 mi
11:54 pm
Fri, Apr 3
30 °FClear.No wind75%29.84 "Hg10 mi
Weather by CustomWeather, © 2020

See weather overview

Advertising